Lapse_Rate
6.3 6.2 6.2 6.0 5.4 5.4 5.3 5.1 5.0 5.1 5.1 5.0 5.1 5.6 6.2 5.9 5.5 6.2 6.4 6.2 5.7 5.8 5.9 5.3 5.9 6.5 6.7 7.1 7.3 7.2 7.2 7.0 7.4 7.7 8.0 7.8 7.8 7.6 7.7 7.6 7.7 7.5 7.2 6.8 6.8 6.7 6.7 7.4 7.3 7.2 7.3 7.2 7.2 7.2
5.9 5.5 5.4 5.3 5.3 5.3 5.1 5.2 5.2 5.1 5.4 5.2 5.4 5.9 6.0 6.3 5.3 6.3 6.5 6.2 6.1 5.8 6.4 5.2 5.3 6.6 6.9 7.4 7.1 7.2 7.2 7.4 7.5 7.7 7.7 7.9 7.9 7.7 7.7 7.4 7.5 7.3 7.4 7.4 7.2 7.2 7.1 6.9 6.8 6.9 7.1 7.1 7.0 6.8
5.5 5.5 5.4 5.4 5.4 5.4 5.6 5.6 5.7 5.6 5.3 5.6 6.1 6.2 6.7 5.6 5.1 6.3 6.3 6.0 5.8 5.6 6.0 6.1 6.2 6.7 7.0 6.9 7.3 7.1 7.2 7.9 7.8 8.1 7.9 8.1 8.0 8.0 7.8 7.5 7.5 7.3 7.3 7.2 7.2 7.0 6.7 6.6 6.7 6.7 6.7 6.6 6.5 6.4
5.6 5.7 5.7 5.6 5.8 5.8 6.1 6.1 6.2 5.9 6.0 6.4 6.3 6.6 6.2 5.5 5.4 6.9 6.8 6.1 6.0 5.9 6.3 6.5 6.4 6.6 6.9 6.6 6.9 7.2 7.8 8.0 7.9 7.9 8.1 8.4 8.4 8.2 8.1 7.8 7.5 7.5 7.3 7.1 6.9 6.9 6.8 6.6 6.5 6.4 6.4 6.3 6.2 6.1
6.0 6.1 6.2 6.4 6.5 6.4 6.2 6.3 6.5 6.5 6.7 6.6 6.4 6.4 6.0 5.4 5.3 5.5 5.9 6.4 6.1 6.7 6.4 6.8 6.6 7.0 6.9 6.9 6.7 7.2 7.6 7.8 8.2 7.9 7.7 7.9 8.0 8.0 8.1 7.8 7.6 7.5 7.3 7.2 7.2 7.0 6.9 6.8 6.7 6.5 6.3 6.1 5.9 5.9
6.4 6.4 6.5 6.7 6.5 6.3 6.4 6.9 7.2 7.2 6.8 6.7 6.3 5.7 5.3 5.0 5.4 5.2 5.3 5.9 6.1 6.7 6.0 5.6 6.2 6.9 7.0 6.8 6.9 7.2 7.8 7.6 7.7 7.4 7.6 7.8 8.1 7.9 7.8 7.5 7.6 7.6 7.5 7.3 7.2 7.1 7.1 7.0 6.9 6.8 6.6 6.4 6.3 6.2
7.3 6.9 6.8 6.7 6.8 7.0 7.1 7.1 7.4 7.4 7.1 6.4 5.7 5.5 5.0 5.6 6.5 6.2 6.3 6.1 6.1 5.8 5.4 5.6 6.1 6.6 6.5 6.6 6.0 6.4 7.3 7.4 7.2 7.4 7.7 7.9 8.0 7.9 7.6 7.5 7.7 7.4 7.3 7.2 7.2 7.2 7.0 7.0 6.8 6.7 6.5 6.4 6.4 6.4
6.6 7.6 7.3 7.0 6.8 6.9 6.9 7.1 7.4 7.2 6.5 6.0 5.6 5.0 5.6 5.6 7.0 6.5 6.5 6.9 6.4 6.0 6.4 5.7 6.0 6.5 6.5 6.6 6.8 6.9 7.2 7.2 7.1 7.5 7.6 7.8 7.9 7.8 7.5 7.4 7.4 7.4 7.3 7.2 7.2 7.1 6.9 6.7 6.6 6.6 6.6 6.5 6.5 6.3
6.4 6.6 6.3 6.6 6.6 6.4 6.5 7.1 6.4 6.1 5.6 5.7 5.8 6.3 6.5 6.7 6.7 6.3 6.4 6.1 6.4 6.4 6.6 5.8 6.0 6.1 6.4 6.6 6.7 7.0 7.1 7.1 7.2 7.2 7.4 7.6 7.6 7.4 7.2 7.4 7.5 7.4 7.3 7.2 7.1 7.0 6.9 6.8 6.7 6.7 6.7 6.4 6.3 6.2
5.6 5.5 5.3 5.2 5.5 5.6 5.6 5.5 5.6 5.6 5.6 5.6 5.4 5.2 5.6 7.1 5.9 6.1 5.9 5.9 6.0 6.2 6.1 5.8 5.6 6.3 6.3 6.6 6.9 7.0 7.3 7.1 6.9 6.9 7.1 7.1 7.0 7.3 7.3 7.4 7.3 7.4 7.3 7.2 7.2 7.0 7.0 6.9 6.9 6.5 6.3 6.2 6.0 5.8
6.0 5.8 5.2 5.3 5.3 5.3 5.3 5.3 5.6 5.8 6.1 6.3 5.9 5.3 5.7 6.1 5.6 5.9 6.1 6.2 6.2 6.4 6.5 6.3 6.5 7.0 7.0 6.9 7.2 7.3 7.2 6.8 6.7 6.8 6.9 6.8 6.7 7.0 7.4 7.3 7.3 7.3 7.2 7.2 7.4 7.3 7.2 6.9 6.5 6.3 6.2 5.8 5.7 5.5
6.0 5.3 5.6 5.6 5.5 5.7 5.9 6.1 6.1 6.4 6.3 6.2 6.0 6.3 6.1 6.1 6.2 6.3 6.6 6.8 6.8 6.8 6.7 6.5 6.6 6.7 6.8 6.6 6.4 6.4 6.8 6.8 6.9 6.8 6.8 6.7 7.1 7.3 7.4 7.3 7.3 7.3 7.3 7.3 7.1 6.8 6.6 6.4 6.5 6.4 6.0 5.7 5.3 5.1
6.4 6.4 6.4 6.2 5.8 5.7 6.0 6.2 6.8 6.7 6.4 6.3 6.4 6.5 6.5 6.6 6.4 6.4 6.5 6.6 6.7 6.7 6.5 6.7 6.7 6.3 6.2 6.4 6.4 6.6 6.6 6.7 6.6 6.7 6.5 7.0 7.3 7.2 7.4 7.4 7.4 7.0 6.7 6.6 6.4 6.4 6.3 6.2 6.1 5.7 5.4 5.1 5.0 4.9
6.5 6.3 6.4 6.5 6.4 5.9 5.7 5.8 6.1 6.5 6.4 6.7 6.8 6.4 6.4 6.7 6.6 6.6 7.0 7.2 7.3 7.2 6.6 6.4 6.0 6.3 6.2 6.2 6.3 6.4 6.4 6.2 6.3 6.5 6.9 7.3 7.3 7.2 7.2 7.4 7.4 6.8 6.3 6.3 6.3 6.2 5.8 5.5 5.2 5.1 5.1 5.1 4.9 4.8
6.7 6.4 6.1 6.1 6.1 6.4 6.3 6.3 6.5 6.4 6.2 6.5 6.5 6.5 6.5 6.7 6.8 6.8 6.9 7.0 7.0 7.0 6.6 6.4 6.2 6.1 6.1 5.8 5.9 6.4 6.3 5.6 5.3 5.4 6.6 6.6 6.4 6.7 6.5 6.3 6.4 6.7 6.7 6.4 5.8 5.5 5.2 5.0 5.0 5.1 5.1 4.8 4.5 4.4
6.5 6.4 6.3 6.5 6.3 6.3 6.4 6.2 6.4 6.6 6.6 6.6 6.5 5.9 5.8 5.8 6.0 6.0 6.2 6.5 6.4 6.3 5.9 5.9 5.8 5.9 6.4 6.7 6.4 5.8 5.3 5.1 5.3 5.4 5.7 6.0 6.3 6.3 6.2 6.0 5.9 5.6 5.3 5.1 5.0 5.1 5.1 5.1 5.0 4.7 4.5 4.5 4.5 4.5
6.3 6.4 6.2 6.3 6.6 6.6 6.5 6.4 6.3 6.4 6.6 5.6 4.8 5.2 5.3 5.2 5.3 5.3 5.7 5.8 5.9 5.7 5.9 6.1 6.3 6.2 5.9 5.7 5.4 5.2 5.0 5.2 5.2 5.4 5.7 5.9 5.8 5.7 5.3 5.2 5.1 5.0 5.0 5.0 4.9 5.0 5.0 4.8 4.7 4.5 4.3 4.4 4.4 4.5
6.4 6.5 6.3 6.2 6.2 6.3 6.3 6.3 6.4 6.2 5.0 4.6 4.8 4.8 5.2 5.3 5.4 5.6 5.6 5.7 5.8 5.8 5.9 5.9 5.5 5.4 5.1 4.6 4.4 4.5 4.7 4.9 5.0 5.2 5.2 5.1 5.1 5.2 5.1 4.9 4.9 4.9 4.8 4.8 4.8 4.8 4.9 4.8 4.5 4.3 4.3 4.5 4.8 5.1
6.3 6.3 6.3 6.3 6.2 6.1 6.1 5.9 6.1 4.7 4.2 4.6 4.8 5.0 5.2 5.4 5.3 5.3 5.5 5.6 5.6 5.7 5.7 5.5 5.1 4.6 4.2 4.2 4.3 4.4 4.6 4.7 4.7 4.7 4.8 4.7 4.7 4.7 4.7 4.8 4.9 4.9 4.9 4.9 5.0 5.0 4.9 4.7 4.6 4.8 5.0 5.3 5.3 5.2
6.5 6.5 6.5 6.5 6.4 6.5 6.3 5.1 5.2 4.7 4.7 4.7 4.9 5.1 5.1 5.2 5.1 5.2 5.2 5.1 5.1 5.2 5.2 4.4 4.1 4.0 4.2 4.3 4.3 4.4 4.5 4.6 4.5 4.6 4.7 4.9 5.0 5.0 5.0 5.0 5.1 5.1 5.1 5.0 4.9 5.1 5.2 5.4 5.5 5.5 5.4 5.3 5.2 5.4
6.8 6.8 6.7 6.9 7.0 7.1 6.1 5.5 5.3 5.1 5.0 5.3 5.3 5.1 5.2 5.1 5.1 5.1 5.1 5.1 5.2 5.3 4.6 4.0 3.8 4.0 4.1 4.3 4.4 4.5 4.5 4.6 4.6 4.6 4.7 4.9 5.0 5.2 5.3 5.2 5.3 5.4 5.7 6.0 6.1 5.9 5.7 5.4 5.4 5.4 5.5 5.7 5.8 6.1
7.6 7.2 7.3 7.5 7.7 7.1 6.5 5.8 5.8 5.4 5.1 5.0 4.9 5.1 5.1 4.9 5.0 5.2 4.8 5.1 5.1 4.1 3.9 3.8 4.0 4.1 4.2 4.3 4.5 4.6 4.7 4.7 4.8 4.8 4.8 4.9 5.3 5.6 5.9 6.1 6.1 6.0 5.8 5.6 5.5 5.5 5.6 5.8 6.0 6.3 6.5 6.7 7.0 7.0
8.2 8.0 8.3 8.3 7.8 7.1 6.6 6.7 6.6 6.6 5.7 5.6 5.7 5.7 5.5 5.6 5.4 5.3 5.0 4.8 4.5 4.4 4.5 4.5 4.5 4.6 4.7 4.8 5.0 5.1 5.2 5.4 5.4 5.5 5.6 5.6 5.5 5.6 5.6 5.6 5.6 5.5 5.5 5.6 5.6 5.7 5.9 6.1 6.2 6.4 6.7 6.9 7.0 6.9
8.6 8.8 8.6 8.2 7.7 7.1 6.6 6.7 6.5 6.2 5.8 5.8 5.8 5.5 5.4 5.2 5.0 5.0 4.7 4.4 4.2 4.4 4.6 4.5 4.6 4.8 4.9 5.0 5.1 5.2 5.2 5.2 5.3 5.3 5.4 5.5 5.6 5.6 5.7 5.6 5.7 5.8 5.9 6.0 6.1 6.2 6.3 6.4 6.6 6.6 6.5 6.5 6.6 6.5
8.7 8.2 7.7 7.4 6.8 6.6 6.4 6.3 6.3 6.2 5.8 5.7 5.7 5.4 5.2 5.3 5.5 5.0 4.8 4.7 4.6 4.7 4.9 5.1 4.9 5.0 5.1 5.2 5.4 5.5 5.5 5.6 5.6 5.7 5.7 5.9 6.0 6.2 6.2 6.3 6.2 6.2 6.2 6.2 6.2 6.2 6.2 6.1 6.1 6.1 6.2 6.3 6.2 6.1
8.2 7.3 7.1 6.6 6.4 6.6 6.1 6.0 5.8 5.7 5.7 5.8 5.5 5.4 5.3 5.4 5.5 5.5 5.3 5.4 5.5 5.6 5.7 5.7 5.8 5.9 5.9 5.9 6.0 6.0 6.1 6.2 6.3 6.3 6.3 6.3 6.1 6.1 6.0 6.0 6.0 5.9 5.9 5.9 5.8 5.9 5.9 6.0 6.0 6.0 6.0 5.9 5.9 5.8
6.6 6.2 6.4 6.5 6.3 6.4 6.2 5.9 5.8 6.1 6.0 5.8 5.7 5.7 6.0 6.3 6.4 6.3 6.2 6.2 6.4 6.4 6.4 6.5 6.5 6.5 6.5 6.4 6.4 6.3 6.2 6.1 6.0 5.9 5.8 5.7 5.7 5.8 5.8 5.8 5.8 5.7 5.7 5.7 5.6 5.6 5.6 5.6 5.6 5.5 5.4 5.3 5.2 5.2
6.2 5.8 6.2 6.1 6.4 6.3 6.4 6.5 6.5 6.3 6.4 6.6 6.8 7.1 7.1 7.2 7.1 6.9 6.9 6.7 6.6 6.4 6.3 6.2 6.2 6.1 6.0 6.0 5.9 5.8 5.8 5.7 5.7 5.6 5.5 5.5 5.4 5.4 5.4 5.3 5.2 5.3 5.3 5.3 5.4 5.4 5.5 5.5 5.4 5.3 5.2 5.2 5.1 5.0
6.1 6.1 6.3 6.4 6.6 6.8 6.7 6.8 6.9 7.0 7.2 7.2 7.3 7.2 7.1 7.0 6.9 6.7 6.4 6.3 6.2 6.1 6.0 6.0 5.9 5.8 5.8 5.8 5.8 5.8 5.8 5.7 5.7 5.7 5.8 5.7 5.7 5.6 5.6 5.6 5.6 5.5 5.5 5.5 5.4 5.2 5.1 5.0 5.0 4.9 4.8 4.9 4.9 5.0
6.6 6.6 6.7 6.8 7.0 7.0 7.1 7.2 7.2 7.3 7.3 7.2 7.1 7.0 6.9 6.8 6.6 6.4 6.3 6.2 6.2 6.1 6.0 5.9 6.0 6.0 5.9 5.8 5.7 5.7 5.6 5.5 5.5 5.5 5.4 5.3 5.3 5.2 5.2 5.1 5.1 5.1 5.0 4.8 4.8 4.7 4.6 4.6 4.6 4.7 4.9 4.9 5.0 5.1
7.1 7.1 7.3 7.3 7.3 7.2 7.1 7.0 7.1 7.1 7.1 6.9 6.9 6.9 6.8 6.7 6.7 6.5 6.4 6.4 6.3 6.1 6.0 6.0 5.9 5.8 5.9 5.9 5.8 5.6 5.5 5.4 5.3 5.2 5.1 5.0 5.0 4.9 4.9 4.9 4.8 4.8 4.8 4.8 4.8 4.9 4.9 5.0 5.0 5.0 5.0 5.1 5.1 5.2
7.6 7.6 7.4 7.4 7.2 7.0 7.0 7.1 7.0 7.2 7.2 6.9 6.8 6.7 6.7 6.6 6.5 6.4 6.3 6.3 6.3 6.2 6.0 5.9 5.8 5.7 5.6 5.5 5.4 5.3 5.2 5.1 5.1 5.1 5.2 5.1 5.1 5.2 5.1 5.1 5.1 5.0 5.0 4.9 4.9 4.9 4.9 5.0 5.0 5.1 5.2 5.1 5.1 5.1
7.7 7.5 7.5 7.4 7.4 7.4 7.3 7.1 7.1 6.9 6.8 6.8 6.8 6.8 6.8 6.8 6.7 6.5 6.4 6.3 6.1 5.9 5.9 5.7 5.6 5.5 5.4 5.3 5.2 5.2 5.2 5.2 5.3 5.3 5.3 5.3 5.3 5.3 5.4 5.3 5.2 5.1 5.0 4.8 4.7 4.7 4.5 4.5 4.5 4.5 4.6 4.7 4.8 4.9
Wind_Speed
28 27 27 27 27 27 26 26 25 24 25 25 25 25 22 23 30 13 3 4 2 3 7 6 7 14 9 11 9 5 4 2 3 4 3 3 3 5 4 7 7 7 6 3 3 2 7 6 4 7 6 4 7 5
25 25 25 24 23 21 21 22 22 23 25 25 23 24 22 26 30 15 3 4 3 4 4 5 6 11 18 9 6 3 4 6 5 4 1 3 2 2 4 3 3 1 7 6 8 6 5 2 3 4 6 7 4 7
20 21 21 21 20 18 16 16 20 22 18 24 25 23 24 26 26 12 3 3 2 4 5 3 5 4 3 10 9 5 2 5 4 4 4 2 4 4 4 4 4 2 5 4 4 4 3 6 7 6 5 10 7 6
17 18 19 19 18 18 15 16 16 17 18 26 25 25 24 23 23 13 3 2 2 4 1 5 1 5 7 9 13 7 8 5 7 4 3 3 4 3 4 4 5 5 7 6 4 1 9 8 6 10 13 12 14 13
17 16 16 16 17 20 18 16 16 15 18 21 20 20 21 20 20 8 2 4 6 4 4 5 12 5 4 0 10 12 10 7 4 3 3 2 3 4 1 3 1 5 7 5 5 11 5 4 5 7 12 10 10 15
15 14 15 16 16 16 14 13 14 15 18 19 18 20 20 22 22 8 4 6 5 0 2 3 4 5 4 9 10 11 5 4 3 4 3 1 1 3 4 3 2 1 2 5 6 6 13 13 10 9 13 12 12 14
16 15 15 15 15 14 15 16 16 16 16 17 17 17 18 19 11 4 4 2 13 6 2 3 6 3 2 3 0 0 4 3 3 3 2 3 2 4 3 4 6 4 8 13 18 18 9 4 8 11 15 14 16 14
16 17 17 17 16 14 13 15 16 15 14 14 15 16 17 16 4 3 2 11 7 4 3 1 4 2 7 3 2 3 2 2 5 2 2 2 2 2 1 1 10 8 12 9 6 9 13 16 14 14 13 14 14 11
14 13 14 14 14 14 13 14 15 15 16 18 18 17 5 4 3 3 11 7 3 3 2 2 1 2 3 3 2 4 3 4 2 2 1 2 2 1 2 7 11 12 6 14 15 17 16 16 14 13 13 10 13 9
18 16 14 12 11 11 11 17 17 20 21 21 10 4 1 3 13 10 2 3 4 3 2 2 2 1 3 3 3 3 2 2 2 2 2 3 1 2 4 5 5 12 17 18 18 10 14 14 13 11 10 7 8 9
19 20 20 21 21 20 19 21 21 24 21 3 4 3 5 12 3 2 2 3 1 3 2 1 2 3 4 4 3 2 1 2 3 3 4 2 2 2 1 7 6 10 9 4 12 12 12 16 15 13 11 10 10 10
22 23 23 23 25 25 25 26 26 10 4 5 6 5 4 2 1 3 3 2 4 2 3 2 2 3 2 3 4 2 2 2 2 2 3 3 1 6 6 8 10 9 12 13 15 17 14 13 13 13 11 10 10 9
26 23 22 22 20 22 25 27 33 9 8 3 3 4 2 2 7 4 1 2 3 4 3 2 3 3 3 4 3 3 3 2 1 2 2 1 5 4 9 11 12 13 15 16 15 15 15 14 11 13 12 9 9 9
29 28 26 23 20 16 9 5 2 2 5 5 5 6 5 5 4 2 2 1 1 1 2 3 2 3 1 4 2 4 1 2 2 4 4 2 6 6 10 10 13 12 13 13 13 13 13 13 11 10 9 8 10 9
23 24 22 17 14 13 12 13 12 5 5 6 6 6 6 2 2 1 1 1 3 2 2 2 2 3 2 3 1 3 2 1 1 1 1 2 5 10 10 10 11 11 11 11 11 11 11 11 10 9 7 7 8 8
8 19 12 12 9 10 8 7 6 3 3 4 7 4 3 3 4 4 4 3 3 2 1 2 3 3 3 2 2 3 2 2 1 1 2 4 8 9 10 10 9 10 11 10 9 10 10 10 10 9 7 6 5 7
16 4 13 9 7 23 18 5 4 6 5 4 3 2 1 1 0 1 1 2 3 2 2 2 4 2 0 3 3 4 3 2 2 1 2 7 8 11 11 10 10 9 9 9 9 9 8 7 8 8 9 6 6 6
4 6 11 8 7 10 4 5 4 5 7 3 3 3 2 3 3 3 4 3 2 2 2 3 3 5 5 4 3 3 2 3 3 3 4 6 7 7 7 9 8 9 10 9 8 8 9 8 7 4 7 7 6 7
9 11 14 12 7 4 4 5 4 4 5 2 2 3 2 4 7 6 7 7 6 4 3 3 5 4 3 3 3 5 5 3 2 3 3 5 6 7 7 8 9 9 9 9 8 6 7 9 6 5 5 5 4 3
10 20 18 16 7 3 5 4 3 4 3 2 2 6 4 3 4 7 11 8 7 4 6 5 4 3 3 5 5 4 5 5 3 5 6 6 5 7 6 7 7 9 10 11 10 10 8 8 6 5 5 4 3 2
9 7 12 8 4 6 4 3 4 3 3 2 1 2 3 4 8 7 6 7 7 4 4 4 4 5 6 7 7 6 8 8 7 5 4 5 7 8 8 8 9 8 8 7 7 7 7 5 4 4 4 3 3 2
3 9 3 7 5 5 5 5 3 0 3 1 3 3 3 3 3 4 2 7 4 4 3 4 6 6 8 12 9 11 9 10 11 9 12 9 7 7 8 7 8 8 8 7 6 5 5 4 3 3 3 2 3 3
5 6 5 6 7 6 2 3 5 4 4 2 3 4 3 3 3 2 4 4 4 4 6 6 8 9 9 10 11 13 12 11 8 8 8 8 8 7 8 8 7 7 7 6 5 5 4 5 5 4 3 3 3 3
7 5 6 5 6 2 3 5 3 3 4 4 3 3 3 3 2 4 4 3 3 6 7 8 4 5 6 10 8 8 8 7 7 8 6 6 7 7 7 7 7 7 6 5 5 4 5 4 4 4 4 3 3 1
7 8 6 7 4 6 5 4 5 4 3 3 3 3 1 2 3 3 2 2 4 5 6 5 6 6 5 4 5 6 9 6 5 7 6 4 5 5 6 6 6 6 5 5 4 4 3 4 4 4 5 4 4 4
8 6 5 5 3 4 3 3 3 3 2 3 3 2 2 3 5 3 2 1 2 3 3 3 2 5 6 5 5 5 5 4 4 6 6 6 6 4 4 4 3 3 4 2 3 3 4 3 3 5 4 5 4 3
6 5 3 1 2 2 3 3 3 5 4 4 3 4 3 4 3 2 1 2 2 2 3 4 5 5 5 5 5 5 5 5 6 6 5 6 6 4 3 3 1 2 1 2 2 2 1 2 3 3 3 3 3 3
4 4 4 5 4 4 3 3 4 3 3 4 2 6 3 3 2 2 3 2 4 3 4 5 6 6 6 5 5 4 4 3 6 6 6 5 5 6 5 2 2 3 1 1 1 2 2 3 4 3 3 4 5 3
3 2 3 5 4 4 5 3 2 2 4 2 3 3 3 3 4 4 4 5 5 5 5 5 5 4 5 5 5 5 6 5 5 5 4 3 4 4 6 5 4 4 4 3 6 5 4 1 2 3 4 4 4 2
3 2 4 4 5 4 2 3 3 3 3 3 4 4 4 2 4 4 4 5 5 5 4 5 4 5 4 3 2 4 3 3 3 3 3 1 3 3 3 3 3 3 4 3 4 5 6 4 5 5 4 4 3 2
2 4 4 4 3 1 3 5 4 4 3 4 4 3 3 3 2 5 6 4 5 3 5 4 4 3 4 3 3 3 3 3 2 0 2 3 3 3 3 3 4 7 3 3 3 2 3 3 3 3 5 6 4 3
3 3 3 3 1 3 2 2 3 3 2 3 1 2 2 3 3 3 3 2 4 4 4 3 3 3 2 1 2 2 3 1 3 3 4 2 3 6 8 8 8 5 3 3 3 3 3 3 3 5 7 7 5 5
4 4 4 3 3 3 3 3 3 3 3 2 2 2 2 3 2 2 2 5 3 2 1 2 3 2 4 5 4 1 3 6 10 13 14 7 7 12 10 10 10 7 3 3 4 3 5 4 3 5 6 6 6 5
Wind_Direction
129 135 138 141 149 155 159 166 169 177 179 180 183 185 186 202 194 174 125 115 198 263 296 306 178 186 171 188 178 184 95 320 56 88 127 189 127 212 108 159 171 154 142 188 107 70 276 198 107 160 197 159 140 125
116 124 129 133 139 145 154 166 171 172 176 177 182 182 189 193 174 166 112 165 193 241 269 298 264 266 219 159 136 151 172 168 168 98 49 109 108 93 139 201 131 145 176 178 175 212 240 317 152 106 139 129 116 114
118 124 133 139 140 134 143 151 159 165 180 183 181 179 184 167 167 169 106 115 168 290 264 226 253 287 239 180 157 130 280 166 138 160 152 141 132 132 138 232 126 250 149 146 102 337 87 79 61 73 91 106 89 81
129 132 136 141 144 140 159 159 164 165 159 164 162 165 164 165 165 162 130 131 219 278 287 285 318 290 283 161 158 163 161 92 102 79 104 126 136 182 203 165 147 192 140 154 79 29 83 40 68 111 99 93 87 74
137 135 135 141 147 152 154 145 145 149 151 162 157 151 158 154 148 131 139 207 253 324 349 321 314 272 332 324 149 150 132 117 102 87 61 191 149 113 336 81 232 184 168 156 206 183 132 135 112 114 102 100 100 101
144 144 145 146 144 142 143 138 139 152 153 145 148 152 154 159 152 170 168 208 183 36 349 313 285 326 14 68 45 110 124 89 99 138 182 130 114 106 118 180 273 181 174 157 149 105 106 104 94 104 102 102 97 97
154 155 151 144 138 137 137 139 144 141 135 142 149 160 159 173 181 165 154 125 151 127 273 268 318 298 267 78 73 62 58 61 94 106 67 120 82 84 99 170 162 120 97 107 118 113 97 146 129 112 106 105 102 99
146 145 141 142 137 130 127 129 134 138 141 147 156 152 154 170 220 264 146 82 114 140 228 231 268 55 13 45 67 328 122 58 22 140 29 89 31 51 125 160 133 116 95 98 93 76 111 119 115 112 112 116 106 100
169 163 154 152 152 151 148 148 144 153 154 160 151 138 142 212 159 202 41 68 140 236 252 155 149 137 4 17 37 26 48 57 319 113 165 82 336 173 281 157 151 148 129 127 105 108 116 117 119 119 117 110 110 103
182 175 179 185 193 182 178 161 162 163 155 141 137 197 61 138 81 55 134 209 152 192 296 99 328 66 67 30 36 68 22 97 70 270 85 69 86 327 25 63 100 123 125 126 112 118 123 122 124 123 116 108 106 103
161 174 188 189 184 169 162 161 166 142 144 192 167 117 101 66 60 291 163 149 163 46 6 211 128 104 359 93 113 53 113 46 100 254 128 161 183 187 79 70 94 126 131 90 110 117 125 132 131 121 104 97 100 108
113 120 124 125 136 142 150 155 154 162 195 155 105 68 74 184 97 103 6 334 66 121 350 69 11 71 40 81 81 29 106 59 171 144 95 179 140 148 127 100 88 101 108 107 113 118 117 115 116 114 112 115 114 110
82 103 113 121 130 140 147 160 174 225 129 101 100 114 153 314 60 71 34 14 32 351 332 19 49 66 38 53 63 90 93 199 56 139 203 221 137 123 115 109 95 99 100 99 98 99 101 100 103 115 118 113 114 109
70 78 84 88 92 96 98 136 253 255 54 57 48 59 47 34 47 26 23 50 261 299 17 54 50 72 26 57 89 110 231 113 85 158 206 146 150 121 120 118 118 111 100 98 100 101 105 106 99 99 111 124 122 117
66 64 63 42 72 83 82 62 37 47 52 52 26 42 28 348 360 329 241 48 355 306 20 56 57 83 52 93 54 114 81 170 134 180 100 129 115 120 120 122 115 112 109 107 112 111 110 114 115 114 114 118 117 119
67 53 17 14 72 100 114 76 37 61 53 58 38 50 5 28 9 358 2 355 330 317 37 48 84 78 56 103 84 42 105 58 51 3 342 100 112 117 121 115 111 116 113 115 118 119 122 126 131 127 116 111 120 129
56 54 325 6 47 57 49 72 48 52 71 60 45 4 25 124 123 306 283 281 298 54 57 35 57 57 237 67 58 20 30 344 342 1 29 123 123 123 122 115 116 114 115 119 124 128 126 116 119 122 128 137 123 129
45 324 6 29 19 45 43 43 67 64 64 63 90 12 77 52 32 22 341 336 62 76 45 51 41 41 32 43 37 343 339 10 33 42 58 94 105 114 121 132 131 129 128 129 125 117 121 126 119 104 124 115 100 109
44 32 25 31 62 85 68 34 49 78 48 13 349 357 44 54 41 36 32 30 56 46 75 49 46 35 41 17 328 345 344 351 29 43 52 87 105 115 115 110 114 118 119 115 109 100 94 88 83 79 78 85 86 85
32 27 18 20 47 70 65 34 52 69 46 47 5 41 38 31 10 34 34 20 34 54 45 45 34 17 21 358 352 357 349 340 33 75 59 47 45 71 78 92 93 94 97 97 87 88 89 77 62 66 68 64 69 45
31 347 9 24 47 59 77 35 50 96 124 71 317 50 38 36 42 32 33 0 46 38 58 52 60 46 29 25 17 19 28 30 35 29 72 66 49 63 62 58 73 79 87 88 89 81 75 77 68 67 66 56 51 98
342 20 48 26 66 51 58 17 101 135 69 142 40 44 37 26 35 29 50 36 53 24 29 55 55 45 41 39 33 31 35 45 46 51 48 52 53 52 51 53 68 68 65 70 76 83 82 70 61 61 67 22 49 78
19 36 42 34 63 48 317 10 57 25 65 7 34 38 20 21 55 48 69 44 46 359 43 68 66 59 55 43 43 40 35 50 55 53 55 61 61 58 60 54 53 71 71 52 59 68 71 61 62 57 35 35 29 25
34 49 45 53 52 60 10 18 33 37 36 37 56 48 25 27 63 64 68 48 14 8 29 33 56 61 50 44 39 28 28 40 53 48 45 66 71 60 59 58 51 47 46 56 49 45 49 41 34 36 30 27 12 359
65 0 62 10 0 61 52 22 12 44 53 34 69 24 342 39 73 60 73 69 15 14 14 36 46 47 55 46 32 28 27 41 55 63 27 50 91 89 74 66 55 41 31 51 39 37 20 22 26 27 19 15 341 328
68 9 52 29 17 52 44 66 37 35 70 53 43 313 44 70 59 50 61 105 5 2 353 14 65 69 60 47 46 28 8 14 66 70 39 33 43 66 60 56 37 25 20 85 72 39 11 7 19 14 357 348 11 15
54 29 348 22 85 42 49 40 50 68 51 37 346 10 37 67 69 74 90 25 76 354 27 37 54 58 56 47 41 24 14 25 66 84 81 65 59 61 98 102 71 255 321 101 117 151 216 286 288 294 297 308 281 261
54 47 37 345 31 39 76 53 52 44 25 344 43 32 75 78 61 33 19 62 107 92 67 59 59 65 66 53 31 14 12 24 89 86 81 64 59 46 19 352 353 359 341 5 285 297 264 262 261 265 262 266 284 265
39 357 61 32 46 51 30 49 63 43 344 360 76 69 80 62 1 6 11 37 57 71 62 61 50 68 69 56 42 37 37 36 71 58 38 349 349 336 356 9 1 358 351 330 317 314 296 284 297 249 258 249 277 307
318 40 87 47 60 51 341 48 73 28 19 93 100 98 74 57 24 3 27 37 64 69 66 67 54 63 51 53 34 17 17 50 83 116 123 284 252 281 312 333 327 317 332 332 322 310 326 1 343 347 352 333 346 358
20 32 62 60 82 35 93 111 91 55 48 47 40 93 131 147 42 29 33 28 58 53 62 54 37 23 65 42 62 55 355 339 350 218 250 260 265 276 277 280 304 328 336 351 345 332 325 330 321 316 310 302 271 222
27 65 109 89 55 287 51 161 155 104 63 68 95 80 48 64 59 359 346 40 49 46 25 35 38 332 257 253 40 58 84 321 347 327 352 315 294 301 307 300 316 337 356 341 336 329 325 328 321 352 348 333 310 310
41 35 41 58 32 12 312 83 58 73 41 62 37 105 76 111 126 201 48 58 111 141 311 288 291 313 72 99 113 93 6 345 351 354 356 360 359 356 347 335 329 324 315 305 304 318 329 332 335 336 334 337 333 342